Content
SEND FEEDBACK

Daily
Averages
Monthly
Summary
Mexico

CANCUN, QUINTANA ROO


Home > North America > Mexico > Quintana Roo
Elevation: 30 feet     Latitude: 21 09N     Longitude: 086 49W

WEATHER
 
SELECT A DAY
Number of Records: 163,700;   Date Range: 1/1/95 - 7/27/14
 
SHARE

PRINT THIS DATA

[ ← Previous Day ]
WEATHER ALMANAC - FEBRUARY 16, 2013
[ Next Day → ]
[ °C ]   °F
Weather ElementAverageHighLow
Temperature72.3 °F80.6 °F (11:48 am)62.6 °F (11:47 pm)
Dewpoint62.4 °F69.8 °F (1:48 am)53.6 °F (6:41 pm)
Humidity72.2 %94 % (1:48 am)56 % (6:41 pm)
Barometer30.06 in30.18 in (9:48 pm)29.93 in (2:45 am)
Wind Speed10.9 mph17.3 mph (12:40 pm)
Wind Gust28.8 mph (2:43 pm)
Weather ElementAverage
Visibility6.8 mi
Wind DirectionNNW (330.4 °)

Weather ElementTotal
Precipitation---
Cooling Degree Days6.6 (Base 65)
Growing Degree Days21.6 (Base 50)
Averaged from 23 records on February 16, 2013
WEATHER CONDITIONS BREAKOUT
WIND DIRECTION BREAKOUT
WEATHER BY HOUR - FEBRUARY 16, 2013
[ °C ]   °F
Local TimeTemperatureDewpointHumidityBarometerVisibilityWind DirectionWind SpeedGust SpeedPrecipitationEventsConditions
1:48 AM71.6 °F69.8 °F94 %29.94 in6.0 miNW (320°)4.6 mphMostly Cloudy
2:45 AM71.6 °F69.8 °F94 %29.93 in6.0 miNNW (330°)6.9 mphMostly Cloudy
3:46 AM71.6 °F69.8 °F94 %29.94 in6.0 miNNW (330°)4.6 mphMostly Cloudy
4:42 AM71.6 °F69.8 °F94 %29.95 in6.0 miNNW (330°)6.9 mphMostly Cloudy
5:48 AM71.6 °F69.8 °F94 %29.96 in6.0 miNNW (330°)6.9 mphMostly Cloudy
6:43 AM69.8 °F68.0 °F94 %29.99 in7.0 miNW (320°)5.8 mphMostly Cloudy
7:56 AM73.4 °F69.8 °F88 %30.02 in7.0 miNNW (330°)10.4 mphMostly Cloudy
8:41 AM77.0 °F69.8 °F78 %30.04 in7.0 miNNW (330°)16.1 mphMostly Cloudy
9:43 AM75.2 °F66.2 °F73 %30.08 in7.0 miNW (320°)16.1 mphMostly Cloudy
10:40 AM78.8 °F62.6 °F57 %30.08 in7.0 miNNW (330°)15.0 mphMostly Cloudy
11:48 AM80.6 °F64.4 °F58 %30.07 in7.0 miNNW (340°)16.1 mphMostly Cloudy
12:40 PM78.8 °F64.4 °F61 %30.06 in7.0 miNW (320°)17.3 mphMostly Cloudy
1:46 PM78.8 °F62.6 °F57 %30.06 in7.0 miNNW (330°)16.1 mphMostly Cloudy
2:43 PM75.2 °F60.8 °F61 %30.06 in7.0 miNNW (330°)16.1 mph28.8 mphMostly Cloudy
3:44 PM73.4 °F59.0 °F61 %30.07 in7.0 miNorth (350°)16.1 mphMostly Cloudy
4:42 PM73.4 °F59.0 °F61 %30.09 in7.0 miNorth (360°)12.7 mphMostly Cloudy
5:42 PM71.6 °F55.4 °F57 %30.10 in7.0 miNNW (340°)12.7 mphMostly Cloudy
6:41 PM69.8 °F53.6 °F56 %30.12 in7.0 miNNW (340°)9.2 mphScattered Clouds
7:43 PM68.0 °F55.4 °F64 %30.14 in7.0 miNNW (330°)8.1 mphPartly Cloudy
8:40 PM68.0 °F53.6 °F60 %30.16 in7.0 miNNW (330°)9.2 mphPartly Cloudy
9:48 PM66.2 °F53.6 °F64 %30.18 in7.0 miNW (320°)11.5 mphPartly Cloudy
10:47 PM64.4 °F53.6 °F68 %30.18 in7.0 miNW (320°)5.8 mphPartly Cloudy
11:47 PM62.6 °F53.6 °F72 %30.15 in7.0 miNW (320°)5.8 mphClear
Hourly data recorded from MMUN, located miles away from Cancun, Quintana Roo







STORIES FROM OUR PARTNERS